Time,TemperatureF,DewpointF,PressureIn,WindDirection,WindDirectionDegrees,WindSpeedMPH,WindSpeedGustMPH,Humidity,HourlyPrecipIn,Conditions,Clouds,dailyrainin,SoftwareType,DateUTC
2013-11-11 00:01:00,51.4,50.0,30.35,WNW,292,3.0,9.0,94,0.00,,,0.00,Rainwise IP-100,2013-11-11 08:01:00,
2013-11-11 00:06:00,51.6,50.0,30.35,WSW,247,3.5,8.0,94,0.00,,,0.00,Rainwise IP-100,2013-11-11 08:06:00,
2013-11-11 00:11:00,51.7,50.0,30.36,WNW,292,5.1,7.0,94,0.00,,,0.00,Rainwise IP-100,2013-11-11 08:11:00,
2013-11-11 00:16:00,51.8,50.0,30.36,WNW,292,3.0,6.0,94,0.00,,,0.00,Rainwise IP-100,2013-11-11 08:16:00,
2013-11-11 00:21:00,51.8,50.0,30.36,WSW,247,3.5,6.0,94,0.00,,,0.00,Rainwise IP-100,2013-11-11 08:21:00,
2013-11-11 00:26:00,51.8,50.0,30.35,SW,225,2.8,4.0,94,0.00,,,0.00,Rainwise IP-100,2013-11-11 08:26:00,
2013-11-11 00:31:00,51.8,50.0,30.35,West,270,1.2,3.0,94,0.00,,,0.00,Rainwise IP-100,2013-11-11 08:31:00,
2013-11-11 00:36:00,51.8,50.0,30.36,WSW,247,3.0,5.0,94,0.00,,,0.00,Rainwise IP-100,2013-11-11 08:36:00,
2013-11-11 00:41:00,51.9,50.0,30.36,West,270,1.6,6.0,94,0.00,,,0.00,Rainwise IP-100,2013-11-11 08:41:00,
2013-11-11 00:46:00,51.9,50.0,30.36,SSW,202,1.9,3.0,94,0.00,,,0.00,Rainwise IP-100,2013-11-11 08:46:00,
2013-11-11 00:51:00,51.9,50.0,30.36,SSW,202,0.0,5.0,94,0.00,,,0.00,Rainwise IP-100,2013-11-11 08:51:00,
2013-11-11 00:56:00,51.9,50.0,30.36,WSW,247,1.4,7.0,94,0.00,,,0.00,Rainwise IP-100,2013-11-11 08:56:00,
2013-11-11 01:01:00,51.9,50.0,30.36,SSW,202,0.0,5.0,94,0.00,,,0.00,Rainwise IP-100,2013-11-11 09:01:00,
2013-11-11 01:06:00,51.9,50.0,30.36,SSW,202,2.6,5.0,94,0.00,,,0.00,Rainwise IP-100,2013-11-11 09:06:00,
2013-11-11 01:11:00,51.9,50.0,30.36,WNW,292,3.0,7.0,94,0.00,,,0.00,Rainwise IP-100,2013-11-11 09:11:00,
2013-11-11 01:16:00,52.0,50.0,30.36,WSW,247,2.3,5.0,94,0.00,,,0.00,Rainwise IP-100,2013-11-11 09:16:00,
2013-11-11 01:21:00,51.9,50.0,30.36,SSW,202,3.0,5.0,94,0.00,,,0.00,Rainwise IP-100,2013-11-11 09:21:00,
2013-11-11 01:26:00,51.9,50.0,30.36,SSW,202,3.0,4.0,94,0.00,,,0.00,Rainwise IP-100,2013-11-11 09:26:00,
2013-11-11 01:31:00,51.9,50.0,30.36,SSE,157,2.1,4.0,94,0.00,,,0.00,Rainwise IP-100,2013-11-11 09:31:00,
2013-11-11 01:36:00,52.0,50.0,30.36,SW,225,2.6,3.0,94,0.00,,,0.00,Rainwise IP-100,2013-11-11 09:36:00,
2013-11-11 01:41:00,52.0,50.0,30.36,SSE,157,0.0,4.0,94,0.00,,,0.00,Rainwise IP-100,2013-11-11 09:41:00,
2013-11-11 01:46:00,51.9,50.0,30.36,SSE,157,1.9,4.0,94,0.00,,,0.00,Rainwise IP-100,2013-11-11 09:46:00,
2013-11-11 01:51:00,51.9,50.0,30.36,SSE,157,1.6,3.0,94,0.00,,,0.00,Rainwise IP-100,2013-11-11 09:51:00,
2013-11-11 01:56:00,51.9,50.0,30.36,SW,225,1.6,4.0,94,0.00,,,0.00,Rainwise IP-100,2013-11-11 09:56:00,
2013-11-11 02:01:00,51.8,50.0,30.35,South,180,5.8,5.8,93,0.00,,,0.00,Rainwise IP-100,2013-11-11 10:01:00,
2013-11-11 02:06:00,51.8,50.0,30.35,South,180,0.0,7.0,93,0.00,,,0.00,Rainwise IP-100,2013-11-11 10:06:00,
2013-11-11 02:11:00,51.8,50.0,30.36,South,180,0.0,1.0,93,0.00,,,0.00,Rainwise IP-100,2013-11-11 10:11:00,
2013-11-11 02:16:00,51.8,50.0,30.36,SW,225,6.1,6.1,93,0.00,,,0.00,Rainwise IP-100,2013-11-11 10:16:00,
2013-11-11 02:21:00,51.8,50.0,30.36,WNW,292,3.5,6.0,92,0.00,,,0.00,Rainwise IP-100,2013-11-11 10:21:00,
2013-11-11 02:26:00,51.8,50.0,30.36,WNW,292,3.7,4.0,92,0.00,,,0.00,Rainwise IP-100,2013-11-11 10:26:00,
2013-11-11 02:31:00,51.8,50.0,30.36,SW,225,1.9,5.0,92,0.00,,,0.00,Rainwise IP-100,2013-11-11 10:31:00,
2013-11-11 02:36:00,51.9,49.0,30.36,SW,225,3.0,3.0,91,0.00,,,0.00,Rainwise IP-100,2013-11-11 10:36:00,
2013-11-11 02:41:00,51.9,49.0,30.36,SW,225,3.0,4.0,91,0.00,,,0.00,Rainwise IP-100,2013-11-11 10:41:00,
2013-11-11 02:46:00,51.9,49.0,30.36,WSW,247,0.0,4.0,91,0.00,,,0.00,Rainwise IP-100,2013-11-11 10:46:00,
2013-11-11 02:51:00,51.9,50.0,30.36,ESE,112,1.2,3.0,92,0.00,,,0.00,Rainwise IP-100,2013-11-11 10:51:00,
2013-11-11 02:56:00,51.9,50.0,30.36,SW,225,0.0,4.0,92,0.00,,,0.00,Rainwise IP-100,2013-11-11 10:56:00,
2013-11-11 03:01:00,51.9,50.0,30.37,WSW,247,0.0,5.0,92,0.00,,,0.00,Rainwise IP-100,2013-11-11 11:01:00,
2013-11-11 03:06:00,51.9,50.0,30.37,WNW,292,3.0,5.0,92,0.00,,,0.00,Rainwise IP-100,2013-11-11 11:06:00,
2013-11-11 03:11:00,52.0,50.0,30.36,SW,225,1.9,5.0,92,0.00,,,0.00,Rainwise IP-100,2013-11-11 11:11:00,
2013-11-11 03:16:00,51.9,50.0,30.37,SW,225,0.0,4.0,92,0.00,,,0.00,Rainwise IP-100,2013-11-11 11:16:00,
2013-11-11 03:21:00,52.0,50.0,30.37,South,180,0.0,4.0,92,0.00,,,0.00,Rainwise IP-100,2013-11-11 11:21:00,
2013-11-11 03:26:00,51.9,49.0,30.37,NW,315,0.0,5.0,91,0.00,,,0.00,Rainwise IP-100,2013-11-11 11:26:00,
2013-11-11 03:31:00,51.8,49.0,30.37,SW,225,4.7,5.0,91,0.00,,,0.00,Rainwise IP-100,2013-11-11 11:31:00,
2013-11-11 03:36:00,51.8,49.0,30.37,SSW,202,3.3,5.0,91,0.00,,,0.00,Rainwise IP-100,2013-11-11 11:36:00,
2013-11-11 03:41:00,51.8,49.0,30.37,WSW,247,1.2,6.0,91,0.00,,,0.00,Rainwise IP-100,2013-11-11 11:41:00,
2013-11-11 03:46:00,51.8,49.0,30.37,SSW,202,2.6,3.0,91,0.00,,,0.00,Rainwise IP-100,2013-11-11 11:46:00,
2013-11-11 03:51:00,51.8,49.0,30.36,NNW,337,1.4,2.0,91,0.00,,,0.00,Rainwise IP-100,2013-11-11 11:51:00,
2013-11-11 03:56:00,51.8,49.0,30.36,NNW,337,0.0,1.0,91,0.00,,,0.00,Rainwise IP-100,2013-11-11 11:56:00,
2013-11-11 04:01:00,51.8,49.0,30.36,ESE,112,1.2,3.0,91,0.00,,,0.00,Rainwise IP-100,2013-11-11 12:01:00,
2013-11-11 04:06:00,51.8,49.0,30.34,ESE,112,6.5,6.5,91,0.00,,,0.00,Rainwise IP-100,2013-11-11 12:06:00,
2013-11-11 04:11:00,51.7,49.0,30.34,SE,135,2.6,6.0,91,0.00,,,0.00,Rainwise IP-100,2013-11-11 12:11:00,
2013-11-11 04:16:00,51.6,49.0,30.33,ESE,112,3.0,6.0,91,0.00,,,0.00,Rainwise IP-100,2013-11-11 12:16:00,
2013-11-11 04:21:00,51.4,49.0,30.32,ESE,112,5.1,9.0,91,0.00,,,0.00,Rainwise IP-100,2013-11-11 12:21:00,
2013-11-11 04:26:00,51.3,49.0,30.33,East,90,8.2,11.0,91,0.00,,,0.00,Rainwise IP-100,2013-11-11 12:26:00,
2013-11-11 04:31:00,51.2,49.0,30.32,SE,135,6.3,13.0,91,0.00,,,0.00,Rainwise IP-100,2013-11-11 12:31:00,
2013-11-11 04:36:00,51.2,49.0,30.31,East,90,10.3,11.0,91,0.00,,,0.00,Rainwise IP-100,2013-11-11 12:36:00,
2013-11-11 04:41:00,51.2,49.0,30.32,East,90,5.8,13.0,91,0.00,,,0.00,Rainwise IP-100,2013-11-11 12:41:00,
2013-11-11 04:46:00,51.3,49.0,30.31,ESE,112,3.0,11.0,92,0.00,,,0.00,Rainwise IP-100,2013-11-11 12:46:00,
2013-11-11 04:51:00,51.4,49.0,30.32,East,90,4.0,13.0,92,0.00,,,0.00,Rainwise IP-100,2013-11-11 12:51:00,
2013-11-11 04:56:00,51.4,49.0,30.32,East,90,7.9,11.0,92,0.00,,,0.00,Rainwise IP-100,2013-11-11 12:56:00,
2013-11-11 05:01:00,51.5,50.0,30.32,East,90,7.0,15.0,92,0.00,,,0.00,Rainwise IP-100,2013-11-11 13:01:00,
2013-11-11 05:06:00,51.6,50.0,30.32,East,90,7.2,14.0,92,0.00,,,0.00,Rainwise IP-100,2013-11-11 13:06:00,
2013-11-11 05:11:00,51.8,50.0,30.33,ESE,112,4.2,14.0,92,0.00,,,0.00,Rainwise IP-100,2013-11-11 13:11:00,
2013-11-11 05:16:00,51.9,50.0,30.33,East,90,2.6,11.0,92,0.00,,,0.00,Rainwise IP-100,2013-11-11 13:16:00,
2013-11-11 05:21:00,52.0,50.0,30.34,SE,135,0.0,8.0,92,0.00,,,0.00,Rainwise IP-100,2013-11-11 13:21:00,
2013-11-11 05:26:00,52.1,50.0,30.33,ESE,112,3.3,8.0,92,0.00,,,0.00,Rainwise IP-100,2013-11-11 13:26:00,
2013-11-11 05:31:00,52.2,50.0,30.33,East,90,6.3,10.0,92,0.00,,,0.00,Rainwise IP-100,2013-11-11 13:31:00,
2013-11-11 05:36:00,52.3,50.0,30.33,East,90,2.6,7.0,92,0.00,,,0.00,Rainwise IP-100,2013-11-11 13:36:00,
2013-11-11 05:41:00,52.4,50.0,30.33,East,90,3.0,11.0,92,0.00,,,0.00,Rainwise IP-100,2013-11-11 13:41:00,
2013-11-11 05:46:00,52.5,50.0,30.33,NE,45,2.3,7.0,92,0.00,,,0.00,Rainwise IP-100,2013-11-11 13:46:00,
2013-11-11 05:51:00,52.4,50.0,30.34,ESE,112,1.9,8.0,92,0.00,,,0.00,Rainwise IP-100,2013-11-11 13:51:00,
2013-11-11 05:56:00,52.4,50.0,30.33,East,90,5.8,8.0,92,0.00,,,0.00,Rainwise IP-100,2013-11-11 13:56:00,
2013-11-11 06:01:00,52.4,50.0,30.32,East,90,8.6,14.0,92,0.00,,,0.00,Rainwise IP-100,2013-11-11 14:01:00,
2013-11-11 06:06:00,52.5,50.0,30.34,East,90,2.3,14.0,92,0.00,,,0.00,Rainwise IP-100,2013-11-11 14:06:00,
2013-11-11 06:11:00,52.5,50.0,30.34,ESE,112,3.3,11.0,93,0.00,,,0.00,Rainwise IP-100,2013-11-11 14:11:00,
2013-11-11 06:16:00,52.5,50.0,30.34,East,90,6.8,9.0,93,0.00,,,0.00,Rainwise IP-100,2013-11-11 14:16:00,
2013-11-11 06:21:00,52.5,50.0,30.34,ESE,112,4.4,8.0,93,0.00,,,0.00,Rainwise IP-100,2013-11-11 14:21:00,
2013-11-11 06:26:00,52.4,50.0,30.34,East,90,5.4,9.0,93,0.00,,,0.00,Rainwise IP-100,2013-11-11 14:26:00,
2013-11-11 06:31:00,52.3,50.0,30.34,ESE,112,3.5,7.0,93,0.00,,,0.00,Rainwise IP-100,2013-11-11 14:31:00,
2013-11-11 06:36:00,52.1,50.0,30.34,ESE,112,4.2,9.0,93,0.00,,,0.00,Rainwise IP-100,2013-11-11 14:36:00,
2013-11-11 06:41:00,52.1,50.0,30.34,East,90,5.4,8.0,93,0.00,,,0.00,Rainwise IP-100,2013-11-11 14:41:00,
2013-11-11 06:46:00,52.1,50.0,30.34,East,90,3.0,8.0,93,0.00,,,0.00,Rainwise IP-100,2013-11-11 14:46:00,
2013-11-11 06:51:00,52.0,50.0,30.34,ESE,112,1.6,8.0,93,0.00,,,0.00,Rainwise IP-100,2013-11-11 14:51:00,
2013-11-11 06:56:00,51.9,50.0,30.33,ESE,112,2.6,6.0,93,0.00,,,0.00,Rainwise IP-100,2013-11-11 14:56:00,
2013-11-11 07:01:00,51.9,50.0,30.34,ESE,112,3.3,5.0,93,0.00,,,0.00,Rainwise IP-100,2013-11-11 15:01:00,
2013-11-11 07:06:00,51.9,50.0,30.34,ENE,67,3.5,9.0,93,0.00,,,0.00,Rainwise IP-100,2013-11-11 15:06:00,
2013-11-11 07:11:00,52.0,50.0,30.34,SSE,157,3.0,7.0,94,0.00,,,0.00,Rainwise IP-100,2013-11-11 15:11:00,
2013-11-11 07:16:00,52.1,50.0,30.35,SSE,157,3.3,6.0,94,0.00,,,0.00,Rainwise IP-100,2013-11-11 15:16:00,
2013-11-11 07:21:00,52.1,50.0,30.35,SSE,157,2.3,3.0,94,0.00,,,0.00,Rainwise IP-100,2013-11-11 15:21:00,
2013-11-11 07:26:00,52.2,50.0,30.35,SSE,157,3.0,3.0,93,0.00,,,0.00,Rainwise IP-100,2013-11-11 15:26:00,
2013-11-11 07:31:00,52.3,50.0,30.36,SSE,157,2.8,4.0,93,0.00,,,0.00,Rainwise IP-100,2013-11-11 15:31:00,
2013-11-11 07:36:00,52.4,50.0,30.36,SSE,157,2.3,3.0,93,0.00,,,0.00,Rainwise IP-100,2013-11-11 15:36:00,
2013-11-11 07:41:00,52.4,50.0,30.36,SSE,157,2.1,3.0,93,0.00,,,0.00,Rainwise IP-100,2013-11-11 15:41:00,
2013-11-11 07:46:00,52.4,50.0,30.36,SSE,157,2.1,4.0,92,0.00,,,0.00,Rainwise IP-100,2013-11-11 15:46:00,
2013-11-11 07:51:00,52.4,50.0,30.36,East,90,4.4,4.4,92,0.00,,,0.00,Rainwise IP-100,2013-11-11 15:51:00,
2013-11-11 07:56:00,52.2,50.0,30.35,East,90,5.6,5.6,93,0.00,,,0.00,Rainwise IP-100,2013-11-11 15:56:00,
2013-11-11 08:01:00,52.2,50.0,30.36,ENE,67,2.3,7.0,93,0.00,,,0.00,Rainwise IP-100,2013-11-11 16:01:00,
2013-11-11 08:06:00,52.4,50.0,30.35,East,90,3.5,7.0,93,0.00,,,0.00,Rainwise IP-100,2013-11-11 16:06:00,
2013-11-11 08:11:00,52.7,50.0,30.36,East,90,2.1,7.0,92,0.00,,,0.00,Rainwise IP-100,2013-11-11 16:11:00,
2013-11-11 08:16:00,53.1,50.0,30.36,East,90,4.4,9.0,92,0.00,,,0.00,Rainwise IP-100,2013-11-11 16:16:00,
2013-11-11 08:21:00,53.5,50.0,30.36,SE,135,2.8,10.0,91,0.00,,,0.00,Rainwise IP-100,2013-11-11 16:21:00,
2013-11-11 08:26:00,53.7,50.0,30.36,East,90,2.6,8.0,91,0.00,,,0.00,Rainwise IP-100,2013-11-11 16:26:00,
2013-11-11 08:31:00,53.7,50.0,30.36,ESE,112,1.6,7.0,91,0.00,,,0.00,Rainwise IP-100,2013-11-11 16:31:00,
2013-11-11 08:36:00,53.9,51.0,30.36,ENE,67,5.8,9.0,90,0.00,,,0.00,Rainwise IP-100,2013-11-11 16:36:00,
2013-11-11 08:41:00,54.0,51.0,30.36,East,90,6.8,8.0,90,0.00,,,0.00,Rainwise IP-100,2013-11-11 16:41:00,
2013-11-11 08:46:00,53.8,50.0,30.36,East,90,0.0,7.0,90,0.00,,,0.00,Rainwise IP-100,2013-11-11 16:46:00,
2013-11-11 08:51:00,53.9,51.0,30.36,East,90,4.2,4.2,90,0.00,,,0.00,Rainwise IP-100,2013-11-11 16:51:00,
2013-11-11 08:56:00,54.2,51.0,30.36,East,90,3.7,6.0,90,0.00,,,0.00,Rainwise IP-100,2013-11-11 16:56:00,
2013-11-11 09:01:00,54.4,52.0,30.36,ESE,112,5.4,6.0,90,0.00,,,0.00,Rainwise IP-100,2013-11-11 17:01:00,
2013-11-11 09:06:00,54.6,51.0,30.37,ESE,112,0.0,7.0,89,0.00,,,0.00,Rainwise IP-100,2013-11-11 17:06:00,
2013-11-11 09:11:00,55.1,52.0,30.37,ESE,112,3.5,4.0,89,0.00,,,0.00,Rainwise IP-100,2013-11-11 17:11:00,
2013-11-11 09:16:00,55.8,52.0,30.37,East,90,1.2,6.0,87,0.00,,,0.00,Rainwise IP-100,2013-11-11 17:16:00,
2013-11-11 09:21:00,56.0,52.0,30.37,ESE,112,3.5,4.0,86,0.00,,,0.00,Rainwise IP-100,2013-11-11 17:21:00,
2013-11-11 09:26:00,55.9,52.0,30.38,ESE,112,2.1,3.0,86,0.00,,,0.00,Rainwise IP-100,2013-11-11 17:26:00,
2013-11-11 09:31:00,55.8,52.0,30.37,SSE,157,1.6,3.0,86,0.00,,,0.00,Rainwise IP-100,2013-11-11 17:31:00,
2013-11-11 09:36:00,56.4,53.0,30.37,East,90,0.0,3.0,86,0.00,,,0.00,Rainwise IP-100,2013-11-11 17:36:00,
2013-11-11 09:41:00,57.0,53.0,30.38,SSE,157,3.5,4.0,85,0.00,,,0.00,Rainwise IP-100,2013-11-11 17:41:00,
2013-11-11 09:46:00,57.2,52.0,30.38,ESE,112,3.3,3.3,84,0.00,,,0.00,Rainwise IP-100,2013-11-11 17:46:00,
2013-11-11 09:51:00,57.1,52.0,30.38,ENE,67,0.0,4.0,83,0.00,,,0.00,Rainwise IP-100,2013-11-11 17:51:00,
2013-11-11 09:56:00,57.5,53.0,30.38,NE,45,0.0,2.0,83,0.00,,,0.00,Rainwise IP-100,2013-11-11 17:56:00,
2013-11-11 10:01:00,58.8,53.0,30.39,South,180,0.0,3.0,82,0.00,,,0.00,Rainwise IP-100,2013-11-11 18:01:00,
2013-11-11 10:06:00,59.8,53.0,30.39,NNE,22,0.0,1.0,79,0.00,,,0.00,Rainwise IP-100,2013-11-11 18:06:00,
2013-11-11 10:11:00,60.0,53.0,30.40,SW,225,0.0,2.0,78,0.00,,,0.00,Rainwise IP-100,2013-11-11 18:11:00,
2013-11-11 10:16:00,59.6,52.0,30.39,SSW,202,1.4,4.0,77,0.00,,,0.00,Rainwise IP-100,2013-11-11 18:16:00,
2013-11-11 10:21:00,59.4,53.0,30.39,SSW,202,1.2,5.0,78,0.00,,,0.00,Rainwise IP-100,2013-11-11 18:21:00,
2013-11-11 10:26:00,59.5,53.0,30.39,SSE,157,3.0,7.0,78,0.00,,,0.00,Rainwise IP-100,2013-11-11 18:26:00,
2013-11-11 10:31:00,59.3,52.0,30.39,WSW,247,2.6,6.0,77,0.00,,,0.00,Rainwise IP-100,2013-11-11 18:31:00,
2013-11-11 10:36:00,58.9,52.0,30.39,WNW,292,0.0,6.0,77,0.00,,,0.00,Rainwise IP-100,2013-11-11 18:36:00,
2013-11-11 10:41:00,58.5,52.0,30.39,SSE,157,4.0,7.0,77,0.00,,,0.00,Rainwise IP-100,2013-11-11 18:41:00,
2013-11-11 10:46:00,57.7,50.0,30.39,WSW,247,1.6,7.0,78,0.00,,,0.00,Rainwise IP-100,2013-11-11 18:46:00,
2013-11-11 10:51:00,57.7,50.0,30.39,WSW,247,3.5,5.0,78,0.00,,,0.00,Rainwise IP-100,2013-11-11 18:51:00,
2013-11-11 10:54:00,57.8,50.0,30.38,ESE,112,0.0,5.0,78,0.00,,,0.00,Rainwise IP-100,2013-11-11 18:54:00,
2013-11-11 10:59:00,58.2,51.0,30.38,SSW,202,1.4,4.0,78,0.00,,,0.00,Rainwise IP-100,2013-11-11 18:59:00,
2013-11-11 11:04:00,58.7,52.0,30.37,ENE,67,1.4,4.0,77,0.00,,,0.00,Rainwise IP-100,2013-11-11 19:04:00,
2013-11-11 11:09:00,59.3,51.0,30.38,NNW,337,0.0,2.0,76,0.00,,,0.00,Rainwise IP-100,2013-11-11 19:09:00,
2013-11-11 11:14:00,60.3,52.0,30.38,ESE,112,1.6,2.0,75,0.00,,,0.00,Rainwise IP-100,2013-11-11 19:14:00,
2013-11-11 11:19:00,61.7,53.0,30.38,WSW,247,1.9,3.0,73,0.00,,,0.00,Rainwise IP-100,2013-11-11 19:19:00,
2013-11-11 11:24:00,62.8,53.0,30.37,ESE,112,1.4,5.0,71,0.00,,,0.00,Rainwise IP-100,2013-11-11 19:24:00,
2013-11-11 11:29:00,63.1,53.0,30.37,SW,225,0.0,3.0,69,0.00,,,0.00,Rainwise IP-100,2013-11-11 19:29:00,
2013-11-11 11:34:00,63.0,53.0,30.37,SW,225,3.5,6.0,69,0.00,,,0.00,Rainwise IP-100,2013-11-11 19:34:00,
2013-11-11 11:39:00,63.1,53.0,30.37,SSE,157,0.0,7.0,69,0.00,,,0.00,Rainwise IP-100,2013-11-11 19:39:00,
2013-11-11 11:44:00,63.5,53.0,30.37,SW,225,2.3,5.0,68,0.00,,,0.00,Rainwise IP-100,2013-11-11 19:44:00,
2013-11-11 11:49:00,63.9,53.0,30.37,WSW,247,3.0,4.0,67,0.00,,,0.00,Rainwise IP-100,2013-11-11 19:49:00,
2013-11-11 11:54:00,63.7,53.0,30.37,ESE,112,1.2,6.0,67,0.00,,,0.00,Rainwise IP-100,2013-11-11 19:54:00,
2013-11-11 11:59:00,63.3,52.0,30.36,WNW,292,1.6,5.0,67,0.00,,,0.00,Rainwise IP-100,2013-11-11 19:59:00,
2013-11-11 12:04:00,62.9,52.0,30.36,South,180,2.3,5.0,68,0.00,,,0.00,Rainwise IP-100,2013-11-11 20:04:00,
2013-11-11 12:09:00,62.4,52.0,30.36,WSW,247,3.5,7.0,68,0.00,,,0.00,Rainwise IP-100,2013-11-11 20:09:00,
2013-11-11 12:14:00,62.0,52.0,30.36,NNW,337,2.8,5.0,69,0.00,,,0.00,Rainwise IP-100,2013-11-11 20:14:00,
2013-11-11 12:19:00,62.4,52.0,30.35,East,90,3.5,4.0,69,0.00,,,0.00,Rainwise IP-100,2013-11-11 20:19:00,
2013-11-11 12:24:00,63.3,53.0,30.35,South,180,3.7,5.0,69,0.00,,,0.00,Rainwise IP-100,2013-11-11 20:24:00,
2013-11-11 12:29:00,63.7,53.0,30.34,South,180,0.0,5.0,67,0.00,,,0.00,Rainwise IP-100,2013-11-11 20:29:00,
2013-11-11 12:34:00,63.8,52.0,30.34,SSE,157,1.9,5.0,66,0.00,,,0.00,Rainwise IP-100,2013-11-11 20:34:00,
2013-11-11 12:39:00,63.9,53.0,30.34,WSW,247,2.6,5.0,66,0.00,,,0.00,Rainwise IP-100,2013-11-11 20:39:00,
2013-11-11 12:44:00,63.4,53.0,30.35,WSW,247,5.1,6.0,67,0.00,,,0.00,Rainwise IP-100,2013-11-11 20:44:00,
2013-11-11 12:49:00,62.3,51.0,30.35,ESE,112,4.0,8.0,68,0.00,,,0.00,Rainwise IP-100,2013-11-11 20:49:00,
2013-11-11 12:54:00,62.0,52.0,30.34,SE,135,0.0,6.0,69,0.00,,,0.00,Rainwise IP-100,2013-11-11 20:54:00,
2013-11-11 12:59:00,62.5,52.0,30.34,SSE,157,0.0,4.0,69,0.00,,,0.00,Rainwise IP-100,2013-11-11 20:59:00,
2013-11-11 13:04:00,62.7,52.0,30.35,WSW,247,0.0,4.0,69,0.00,,,0.00,Rainwise IP-100,2013-11-11 21:04:00,
2013-11-11 13:09:00,62.9,52.0,30.34,SW,225,5.4,6.0,68,0.00,,,0.00,Rainwise IP-100,2013-11-11 21:09:00,
2013-11-11 13:14:00,63.4,53.0,30.34,SW,225,1.4,5.0,68,0.00,,,0.00,Rainwise IP-100,2013-11-11 21:14:00,
2013-11-11 13:19:00,64.2,53.0,30.34,SSE,157,0.0,6.0,67,0.00,,,0.00,Rainwise IP-100,2013-11-11 21:19:00,
2013-11-11 13:24:00,65.1,53.0,30.34,SSE,157,1.4,2.0,65,0.00,,,0.00,Rainwise IP-100,2013-11-11 21:24:00,
2013-11-11 13:29:00,65.1,53.0,30.34,SW,225,3.3,4.0,64,0.00,,,0.00,Rainwise IP-100,2013-11-11 21:29:00,
2013-11-11 13:34:00,64.4,53.0,30.33,ESE,112,0.0,5.0,65,0.00,,,0.00,Rainwise IP-100,2013-11-11 21:34:00,
2013-11-11 13:39:00,63.7,52.0,30.33,SSE,157,0.0,4.0,66,0.00,,,0.00,Rainwise IP-100,2013-11-11 21:39:00,
2013-11-11 13:44:00,63.6,52.0,30.33,SSW,202,2.3,4.0,66,0.00,,,0.00,Rainwise IP-100,2013-11-11 21:44:00,
2013-11-11 13:49:00,63.8,52.0,30.33,SW,225,2.3,3.0,66,0.00,,,0.00,Rainwise IP-100,2013-11-11 21:49:00,
2013-11-11 13:54:00,63.9,53.0,30.34,SSW,202,1.9,3.0,66,0.00,,,0.00,Rainwise IP-100,2013-11-11 21:54:00,
2013-11-11 13:59:00,63.7,53.0,30.33,SW,225,3.0,4.0,67,0.00,,,0.00,Rainwise IP-100,2013-11-11 21:59:00,
2013-11-11 14:04:00,63.4,53.0,30.33,WSW,247,4.9,6.0,67,0.00,,,0.00,Rainwise IP-100,2013-11-11 22:04:00,
2013-11-11 14:09:00,63.1,52.0,30.33,SW,225,0.0,5.0,68,0.00,,,0.00,Rainwise IP-100,2013-11-11 22:09:00,
2013-11-11 14:14:00,62.7,52.0,30.33,WSW,247,1.9,8.0,69,0.00,,,0.00,Rainwise IP-100,2013-11-11 22:14:00,
2013-11-11 14:19:00,62.2,52.0,30.33,SW,225,4.4,7.0,69,0.00,,,0.00,Rainwise IP-100,2013-11-11 22:19:00,
2013-11-11 14:24:00,61.4,52.0,30.33,WNW,292,1.6,7.0,70,0.00,,,0.00,Rainwise IP-100,2013-11-11 22:24:00,
2013-11-11 14:29:00,60.7,51.0,30.33,West,270,2.1,5.0,71,0.00,,,0.00,Rainwise IP-100,2013-11-11 22:29:00,
2013-11-11 14:34:00,60.3,50.0,30.34,SSE,157,3.7,6.0,72,0.00,,,0.00,Rainwise IP-100,2013-11-11 22:34:00,
2013-11-11 14:39:00,59.9,51.0,30.34,WNW,292,2.1,8.0,73,0.00,,,0.00,Rainwise IP-100,2013-11-11 22:39:00,
2013-11-11 14:44:00,59.7,50.0,30.34,West,270,2.3,4.0,73,0.00,,,0.00,Rainwise IP-100,2013-11-11 22:44:00,
2013-11-11 14:49:00,59.6,51.0,30.34,WSW,247,0.0,5.0,74,0.00,,,0.00,Rainwise IP-100,2013-11-11 22:49:00,
2013-11-11 14:54:00,59.7,51.0,30.34,West,270,2.6,5.0,74,0.00,,,0.00,Rainwise IP-100,2013-11-11 22:54:00,
2013-11-11 14:59:00,60.2,51.0,30.33,South,180,0.0,5.0,74,0.00,,,0.00,Rainwise IP-100,2013-11-11 22:59:00,
2013-11-11 15:04:00,60.8,51.0,30.33,WNW,292,1.2,5.0,72,0.00,,,0.00,Rainwise IP-100,2013-11-11 23:04:00,
2013-11-11 15:09:00,61.0,52.0,30.34,West,270,4.7,5.0,72,0.00,,,0.00,Rainwise IP-100,2013-11-11 23:09:00,
2013-11-11 15:14:00,60.5,51.0,30.34,NNW,337,0.0,7.0,72,0.00,,,0.00,Rainwise IP-100,2013-11-11 23:14:00,
2013-11-11 15:19:00,59.9,51.0,30.34,West,270,4.2,6.0,73,0.00,,,0.00,Rainwise IP-100,2013-11-11 23:19:00,
2013-11-11 15:24:00,59.2,50.0,30.34,WNW,292,2.1,6.0,74,0.00,,,0.00,Rainwise IP-100,2013-11-11 23:24:00,
2013-11-11 15:29:00,58.6,51.0,30.34,WNW,292,0.0,5.0,75,0.00,,,0.00,Rainwise IP-100,2013-11-11 23:29:00,
2013-11-11 15:34:00,58.7,51.0,30.33,WSW,247,2.8,2.8,76,0.00,,,0.00,Rainwise IP-100,2013-11-11 23:34:00,
2013-11-11 15:39:00,58.7,51.0,30.34,SSW,202,2.3,3.0,76,0.00,,,0.00,Rainwise IP-100,2013-11-11 23:39:00,
2013-11-11 15:44:00,58.7,51.0,30.34,SSW,202,1.4,4.0,76,0.00,,,0.00,Rainwise IP-100,2013-11-11 23:44:00,
2013-11-11 15:49:00,58.8,51.0,30.34,SSW,202,3.7,3.7,76,0.00,,,0.00,Rainwise IP-100,2013-11-11 23:49:00,
2013-11-11 15:54:00,58.9,51.0,30.34,SSW,202,2.1,4.0,76,0.00,,,0.00,Rainwise IP-100,2013-11-11 23:54:00,
2013-11-11 15:59:00,58.8,51.0,30.34,SW,225,0.0,5.0,76,0.00,,,0.00,Rainwise IP-100,2013-11-11 23:59:00,
2013-11-11 16:04:00,58.6,52.0,30.34,SSW,202,0.0,4.0,77,0.00,,,0.00,Rainwise IP-100,2013-11-12 00:04:00,
2013-11-11 16:09:00,58.4,51.0,30.35,WSW,247,2.1,5.0,77,0.00,,,0.00,Rainwise IP-100,2013-11-12 00:09:00,
2013-11-11 16:14:00,58.1,51.0,30.36,NW,315,2.1,5.0,78,0.00,,,0.00,Rainwise IP-100,2013-11-12 00:14:00,
2013-11-11 16:19:00,57.6,51.0,30.35,WNW,292,1.2,6.0,79,0.00,,,0.00,Rainwise IP-100,2013-11-12 00:19:00,
2013-11-11 16:24:00,57.2,51.0,30.35,NNW,337,1.4,8.0,80,0.00,,,0.00,Rainwise IP-100,2013-11-12 00:24:00,
2013-11-11 16:29:00,56.7,50.0,30.35,West,270,2.6,8.0,81,0.00,,,0.00,Rainwise IP-100,2013-11-12 00:29:00,
2013-11-11 16:34:00,55.9,50.0,30.35,West,270,5.4,8.0,82,0.00,,,0.00,Rainwise IP-100,2013-11-12 00:34:00,
2013-11-11 16:35:00,55.8,50.0,30.35,WSW,247,2.8,6.0,82,0.00,,,0.00,Rainwise IP-100,2013-11-12 00:35:00,
2013-11-11 16:37:00,55.6,50.0,30.35,WSW,247,2.3,5.0,83,0.00,,,0.00,Rainwise IP-100,2013-11-12 00:37:00,
2013-11-11 16:42:00,55.1,50.0,30.34,NW,315,1.6,7.0,83,0.00,,,0.00,Rainwise IP-100,2013-11-12 00:42:00,
2013-11-11 16:47:00,54.9,50.0,30.34,SSW,202,0.0,3.0,84,0.00,,,0.00,Rainwise IP-100,2013-11-12 00:47:00,
2013-11-11 16:52:00,54.9,50.0,30.34,WSW,247,1.4,3.0,84,0.00,,,0.00,Rainwise IP-100,2013-11-12 00:52:00,
2013-11-11 16:57:00,55.0,50.0,30.34,WNW,292,1.4,3.0,84,0.00,,,0.00,Rainwise IP-100,2013-11-12 00:57:00,
2013-11-11 17:02:00,55.0,50.0,30.34,NW,315,1.6,3.0,84,0.00,,,0.00,Rainwise IP-100,2013-11-12 01:02:00,
2013-11-11 17:07:00,55.1,50.0,30.34,NW,315,2.8,2.8,84,0.00,,,0.00,Rainwise IP-100,2013-11-12 01:07:00,
2013-11-11 17:12:00,55.1,50.0,30.34,WNW,292,3.5,4.0,84,0.00,,,0.00,Rainwise IP-100,2013-11-12 01:12:00,
2013-11-11 17:17:00,55.1,50.0,30.34,WNW,292,4.4,6.0,84,0.00,,,0.00,Rainwise IP-100,2013-11-12 01:17:00,
2013-11-11 17:22:00,55.0,50.0,30.34,WNW,292,1.4,5.0,84,0.00,,,0.00,Rainwise IP-100,2013-11-12 01:22:00,
2013-11-11 17:27:00,54.9,50.0,30.34,NNW,337,0.0,5.0,85,0.00,,,0.00,Rainwise IP-100,2013-11-12 01:27:00,
2013-11-11 17:32:00,54.9,50.0,30.34,WSW,247,0.0,5.0,85,0.00,,,0.00,Rainwise IP-100,2013-11-12 01:32:00,
2013-11-11 17:37:00,54.7,50.0,30.35,WSW,247,3.0,3.0,85,0.00,,,0.00,Rainwise IP-100,2013-11-12 01:37:00,
2013-11-11 17:42:00,54.6,50.0,30.35,WNW,292,1.4,4.0,86,0.00,,,0.00,Rainwise IP-100,2013-11-12 01:42:00,
2013-11-11 17:47:00,54.5,50.0,30.35,SW,225,0.0,6.0,86,0.00,,,0.00,Rainwise IP-100,2013-11-12 01:47:00,
2013-11-11 17:52:00,54.5,50.0,30.35,WSW,247,0.0,5.0,86,0.00,,,0.00,Rainwise IP-100,2013-11-12 01:52:00,
2013-11-11 17:57:00,54.5,50.0,30.36,SW,225,4.2,4.2,87,0.00,,,0.00,Rainwise IP-100,2013-11-12 01:57:00,
2013-11-11 18:02:00,54.4,50.0,30.35,West,270,3.7,5.0,87,0.00,,,0.00,Rainwise IP-100,2013-11-12 02:02:00,
2013-11-11 18:07:00,54.3,50.0,30.36,ESE,112,0.0,4.0,87,0.00,,,0.00,Rainwise IP-100,2013-11-12 02:07:00,
2013-11-11 18:12:00,54.2,50.0,30.36,West,270,1.9,4.0,88,0.00,,,0.00,Rainwise IP-100,2013-11-12 02:12:00,
2013-11-11 18:17:00,54.1,50.0,30.37,SW,225,0.0,7.0,88,0.00,,,0.00,Rainwise IP-100,2013-11-12 02:17:00,
2013-11-11 18:22:00,53.8,50.0,30.36,NW,315,1.2,6.0,89,0.00,,,0.00,Rainwise IP-100,2013-11-12 02:22:00,
2013-11-11 18:27:00,53.7,50.0,30.36,SW,225,3.7,5.0,89,0.00,,,0.00,Rainwise IP-100,2013-11-12 02:27:00,
2013-11-11 18:32:00,53.6,50.0,30.36,West,270,0.0,5.0,90,0.00,,,0.00,Rainwise IP-100,2013-11-12 02:32:00,
2013-11-11 18:37:00,53.6,50.0,30.36,SSE,157,0.0,6.0,90,0.00,,,0.00,Rainwise IP-100,2013-11-12 02:37:00,
2013-11-11 18:42:00,53.6,50.0,30.37,SSW,202,1.2,9.0,90,0.00,,,0.00,Rainwise IP-100,2013-11-12 02:42:00,
2013-11-11 18:47:00,53.6,50.0,30.37,WSW,247,1.6,4.0,91,0.00,,,0.00,Rainwise IP-100,2013-11-12 02:47:00,
2013-11-11 18:52:00,53.6,50.0,30.38,SSW,202,4.4,5.0,91,0.00,,,0.00,Rainwise IP-100,2013-11-12 02:52:00,
2013-11-11 18:57:00,53.6,50.0,30.38,WSW,247,0.0,8.0,91,0.00,,,0.00,Rainwise IP-100,2013-11-12 02:57:00,
2013-11-11 19:02:00,53.6,50.0,30.37,SW,225,2.1,4.0,91,0.00,,,0.00,Rainwise IP-100,2013-11-12 03:02:00,
2013-11-11 19:07:00,53.5,51.0,30.37,West,270,1.6,4.0,92,0.00,,,0.00,Rainwise IP-100,2013-11-12 03:07:00,
2013-11-11 19:12:00,53.5,50.0,30.37,SW,225,1.4,2.0,91,0.00,,,0.00,Rainwise IP-100,2013-11-12 03:12:00,
2013-11-11 19:17:00,53.6,50.0,30.38,SW,225,2.1,3.0,91,0.00,,,0.00,Rainwise IP-100,2013-11-12 03:17:00,
2013-11-11 19:22:00,53.7,50.0,30.38,SW,225,0.0,3.0,91,0.00,,,0.00,Rainwise IP-100,2013-11-12 03:22:00,
2013-11-11 19:27:00,53.7,50.0,30.38,West,270,1.4,3.0,90,0.00,,,0.00,Rainwise IP-100,2013-11-12 03:27:00,
2013-11-11 19:32:00,54.0,50.0,30.38,WSW,247,2.6,7.0,89,0.00,,,0.00,Rainwise IP-100,2013-11-12 03:32:00,
2013-11-11 19:37:00,54.6,50.0,30.38,SW,225,1.9,6.0,85,0.00,,,0.00,Rainwise IP-100,2013-11-12 03:37:00,
2013-11-11 19:42:00,55.0,50.0,30.39,SW,225,3.0,6.0,83,0.00,,,0.00,Rainwise IP-100,2013-11-12 03:42:00,
2013-11-11 19:47:00,55.1,50.0,30.39,SSE,157,0.0,6.0,82,0.00,,,0.00,Rainwise IP-100,2013-11-12 03:47:00,
2013-11-11 19:52:00,55.2,50.0,30.39,WNW,292,3.5,3.5,81,0.00,,,0.00,Rainwise IP-100,2013-11-12 03:52:00,
2013-11-11 19:57:00,55.5,50.0,30.39,WSW,247,1.4,3.0,80,0.00,,,0.00,Rainwise IP-100,2013-11-12 03:57:00,
2013-11-11 20:00:00,55.8,49.0,30.39,WSW,247,1.6,3.0,78,0.00,,,0.00,Rainwise IP-100,2013-11-12 04:00:00,
2013-11-11 20:05:00,56.1,48.0,30.39,WSW,247,0.0,1.0,76,0.00,,,0.00,Rainwise IP-100,2013-11-12 04:05:00,
2013-11-11 20:10:00,56.1,48.0,30.39,WSW,247,0.0,1.0,76,0.00,,,0.00,Rainwise IP-100,2013-11-12 04:10:00,
2013-11-11 20:15:00,55.9,48.0,30.39,WSW,247,0.0,0.0,76,0.00,,,0.00,Rainwise IP-100,2013-11-12 04:15:00,
2013-11-11 20:20:00,55.7,49.0,30.39,WSW,247,1.9,0.0,77,0.00,,,0.00,Rainwise IP-100,2013-11-12 04:20:00,
2013-11-11 20:25:00,55.6,49.0,30.39,NNW,337,1.6,2.0,77,0.00,,,0.00,Rainwise IP-100,2013-11-12 04:25:00,
2013-11-11 20:30:00,55.7,48.0,30.39,NNW,337,0.0,1.0,75,0.00,,,0.00,Rainwise IP-100,2013-11-12 04:30:00,
2013-11-11 20:35:00,55.9,47.0,30.39,NNW,337,0.0,1.0,71,0.00,,,0.00,Rainwise IP-100,2013-11-12 04:35:00,
2013-11-11 20:40:00,56.3,46.0,30.38,East,90,0.0,2.0,69,0.00,,,0.00,Rainwise IP-100,2013-11-12 04:40:00,
2013-11-11 20:45:00,56.4,47.0,30.38,East,90,0.0,2.0,71,0.00,,,0.00,Rainwise IP-100,2013-11-12 04:45:00,
2013-11-11 20:50:00,56.3,47.0,30.38,East,90,1.4,1.4,74,0.00,,,0.00,Rainwise IP-100,2013-11-12 04:50:00,
2013-11-11 20:55:00,56.1,47.0,30.39,ENE,67,1.4,2.0,74,0.00,,,0.00,Rainwise IP-100,2013-11-12 04:55:00,
2013-11-11 21:00:00,56.0,47.0,30.39,NE,45,0.0,2.0,73,0.00,,,0.00,Rainwise IP-100,2013-11-12 05:00:00,
2013-11-11 21:01:00,56.0,47.0,30.39,NE,45,0.0,2.0,73,0.00,,,0.00,Rainwise IP-100,2013-11-12 05:01:00,
2013-11-11 21:06:00,55.9,47.0,30.40,NE,45,0.0,0.0,74,0.00,,,0.00,Rainwise IP-100,2013-11-12 05:06:00,
2013-11-11 21:11:00,56.0,48.0,30.40,NE,45,0.0,0.0,75,0.00,,,0.00,Rainwise IP-100,2013-11-12 05:11:00,
2013-11-11 21:16:00,56.1,48.0,30.40,NE,45,0.0,1.0,75,0.00,,,0.00,Rainwise IP-100,2013-11-12 05:16:00,
2013-11-11 21:21:00,56.2,48.0,30.39,North,360,3.3,3.3,75,0.00,,,0.00,Rainwise IP-100,2013-11-12 05:21:00,
2013-11-11 21:26:00,56.4,48.0,30.39,NNE,22,1.6,4.0,74,0.00,,,0.00,Rainwise IP-100,2013-11-12 05:26:00,
2013-11-11 21:31:00,56.6,48.0,30.39,NNE,22,0.0,2.0,74,0.00,,,0.00,Rainwise IP-100,2013-11-12 05:31:00,
2013-11-11 21:36:00,56.7,48.0,30.40,NNE,22,0.0,0.0,74,0.00,,,0.00,Rainwise IP-100,2013-11-12 05:36:00,
2013-11-11 21:41:00,56.7,48.0,30.40,NNE,22,0.0,0.0,74,0.00,,,0.00,Rainwise IP-100,2013-11-12 05:41:00,
2013-11-11 21:46:00,56.8,48.0,30.41,WSW,247,2.6,2.6,74,0.00,,,0.00,Rainwise IP-100,2013-11-12 05:46:00,
2013-11-11 21:51:00,56.9,49.0,30.41,WSW,247,2.1,2.1,74,0.00,,,0.00,Rainwise IP-100,2013-11-12 05:51:00,
2013-11-11 21:56:00,56.8,48.0,30.41,SW,225,3.0,3.0,74,0.00,,,0.00,Rainwise IP-100,2013-11-12 05:56:00,
2013-11-11 22:01:00,56.8,49.0,30.40,WSW,247,2.6,3.0,75,0.00,,,0.00,Rainwise IP-100,2013-11-12 06:01:00,
2013-11-11 22:06:00,56.8,49.0,30.40,WSW,247,2.1,3.0,76,0.00,,,0.00,Rainwise IP-100,2013-11-12 06:06:00,
2013-11-11 22:11:00,56.7,49.0,30.40,WNW,292,2.1,3.0,76,0.00,,,0.00,Rainwise IP-100,2013-11-12 06:11:00,
2013-11-11 22:16:00,56.7,49.0,30.40,WNW,292,2.6,2.6,76,0.00,,,0.00,Rainwise IP-100,2013-11-12 06:16:00,
2013-11-11 22:21:00,56.6,49.0,30.40,West,270,4.2,5.0,76,0.00,,,0.00,Rainwise IP-100,2013-11-12 06:21:00,
2013-11-11 22:26:00,57.1,49.0,30.40,West,270,1.6,7.0,74,0.00,,,0.00,Rainwise IP-100,2013-11-12 06:26:00,
2013-11-11 22:31:00,57.7,49.0,30.40,West,270,3.0,7.0,72,0.00,,,0.00,Rainwise IP-100,2013-11-12 06:31:00,
2013-11-11 22:36:00,57.8,49.0,30.39,SSW,202,2.1,6.0,72,0.00,,,0.00,Rainwise IP-100,2013-11-12 06:36:00,
2013-11-11 22:41:00,57.6,49.0,30.39,WSW,247,0.0,5.0,73,0.00,,,0.00,Rainwise IP-100,2013-11-12 06:41:00,
2013-11-11 22:46:00,57.4,50.0,30.39,NNE,22,1.9,2.0,75,0.00,,,0.00,Rainwise IP-100,2013-11-12 06:46:00,
2013-11-11 22:51:00,57.2,49.0,30.39,NNE,22,0.0,3.0,75,0.00,,,0.00,Rainwise IP-100,2013-11-12 06:51:00,
2013-11-11 22:56:00,57.0,50.0,30.39,SSW,202,0.0,2.0,76,0.00,,,0.00,Rainwise IP-100,2013-11-12 06:56:00,
2013-11-11 23:01:00,56.9,50.0,30.40,SSW,202,0.0,1.0,76,0.00,,,0.00,Rainwise IP-100,2013-11-12 07:01:00,
2013-11-11 23:06:00,56.7,49.0,30.40,SSW,202,0.0,0.0,77,0.00,,,0.00,Rainwise IP-100,2013-11-12 07:06:00,
2013-11-11 23:11:00,56.6,49.0,30.40,WSW,247,0.0,3.0,77,0.00,,,0.00,Rainwise IP-100,2013-11-12 07:11:00,
2013-11-11 23:13:00,56.5,49.0,30.40,West,270,1.4,3.0,77,0.00,,,0.00,Rainwise IP-100,2013-11-12 07:13:00,
2013-11-11 23:18:00,56.4,50.0,30.41,WNW,292,2.8,3.0,78,0.00,,,0.00,Rainwise IP-100,2013-11-12 07:18:00,
2013-11-11 23:23:00,56.3,49.0,30.40,NNW,337,1.9,4.0,77,0.00,,,0.00,Rainwise IP-100,2013-11-12 07:23:00,
2013-11-11 23:28:00,56.4,49.0,30.41,NNW,337,1.2,4.0,76,0.00,,,0.00,Rainwise IP-100,2013-11-12 07:28:00,
2013-11-11 23:33:00,56.6,48.0,30.41,WNW,292,3.7,4.0,74,0.00,,,0.00,Rainwise IP-100,2013-11-12 07:33:00,
2013-11-11 23:38:00,57.0,48.0,30.42,SSE,157,1.4,4.0,73,0.00,,,0.00,Rainwise IP-100,2013-11-12 07:38:00,
2013-11-11 23:43:00,56.9,48.0,30.41,ESE,112,1.9,3.0,73,0.00,,,0.00,Rainwise IP-100,2013-11-12 07:43:00,
2013-11-11 23:48:00,56.4,49.0,30.42,NE,45,2.1,4.0,75,0.00,,,0.00,Rainwise IP-100,2013-11-12 07:48:00,
2013-11-11 23:53:00,56.0,49.0,30.41,NE,45,1.4,3.0,77,0.00,,,0.00,Rainwise IP-100,2013-11-12 07:53:00,
2013-11-11 23:58:00,55.8,49.0,30.40,East,90,0.0,3.0,78,0.00,,,0.00,Rainwise IP-100,2013-11-12 07:58:00,